Date,TemperatureHighF,TemperatureAvgF,TemperatureLowF,DewpointHighF,DewpointAvgF,DewpointLowF,HumidityHigh,HumidityAvg,HumidityLow,PressureMaxIn,PressureMinIn,WindSpeedMaxMPH,WindSpeedAvgMPH,GustSpeedMaxMPH,PrecipitationSumIn
2013-1-1,9.0,0.2,-9.0,11.0,1.5,-6.0,100,99,85,30.69,30.42,12,3,16,0.00
2013-1-2,14.0,11.7,7.0,14.0,12.7,8.0,100,100,100,30.43,30.33,9,1,9,0.00
2013-1-3,16.0,11.5,6.0,16.0,10.1,4.0,100,91,54,30.58,30.31,19,5,21,0.00
2013-1-4,30.0,16.8,9.0,21.0,14.9,11.0,100,91,62,30.54,30.29,16,4,18,0.02
2013-1-5,22.0,16.5,7.0,23.0,17.0,8.0,100,99,88,30.54,30.25,11,1,12,0.00
2013-1-6,20.0,13.0,9.0,16.0,11.9,8.0,100,91,63,30.59,30.37,11,2,12,0.00
2013-1-7,36.0,22.6,9.0,24.0,19.3,11.0,100,85,58,30.45,30.06,18,5,19,0.02
2013-1-8,28.0,19.9,9.0,28.0,20.4,11.0,100,100,97,30.41,30.08,11,2,17,0.00
2013-1-9,28.0,24.0,16.0,26.0,21.0,16.0,100,86,68,30.70,30.10,27,5,31,0.72
2013-1-10,43.0,28.0,12.0,32.0,20.0,14.0,100,74,34,30.73,30.17,13,2,15,0.29
2013-1-11,37.0,33.6,30.0,31.0,18.2,14.0,100,53,47,30.17,29.73,6,1,7,0.49
2013-1-12,39.0,22.1,7.0,33.0,16.2,8.0,100,81,32,30.48,29.67,19,4,21,0.06
2013-1-13,9.0,4.9,1.0,11.0,6.7,4.0,100,100,93,30.58,30.45,12,3,12,0.00
2013-1-14,11.0,5.7,1.0,8.0,6.5,4.0,100,96,77,30.77,30.58,11,2,13,0.00
2013-1-15,25.0,13.4,5.0,18.0,11.7,8.0,100,89,60,30.72,30.14,18,3,19,0.00
2013-1-16,26.0,18.6,0.0,26.0,15.7,-6.0,100,86,62,30.66,29.92,19,5,20,0.00
2013-1-17,10.0,1.7,-5.0,8.0,2.2,-6.0,100,93,76,30.80,30.66,11,2,11,0.00
2013-1-18,19.0,12.9,0.0,21.0,13.5,0.0,100,100,96,30.74,30.15,10,1,10,0.00
2013-1-19,29.0,17.2,-1.0,29.0,17.9,0.0,100,98,84,30.54,29.94,23,4,27,0.00
2013-1-20,0.0,-5.5,-11.0,0.0,-3.5,-6.0,100,98,85,30.77,30.54,19,4,21,0.00
2013-1-21,-8.0,-14.6,-20.0,-6.0,-11.6,-13.0,100,96,76,30.74,30.61,18,3,24,0.00
2013-1-22,-1.0,-10.9,-22.0,0.0,-8.5,-13.0,100,93,75,30.78,30.63,10,2,12,0.00
2013-1-23,6.0,-3.3,-14.0,8.0,-2.0,-13.0,100,92,70,31.03,30.49,19,5,25,0.00
2013-1-24,4.0,-7.2,-20.0,4.0,-5.5,-13.0,100,96,80,31.14,30.61,9,2,10,0.00
2013-1-25,16.0,8.8,2.0,14.0,9.2,4.0,100,97,80,30.64,30.28,13,3,16,0.00
2013-1-26,18.0,6.4,-9.0,16.0,6.8,-6.0,100,94,77,30.77,30.55,11,2,15,0.00
2013-1-27,29.0,20.0,9.0,29.0,19.7,11.0,100,96,81,30.57,30.19,12,2,13,0.00
2013-1-28,30.0,27.8,23.0,31.0,27.5,23.0,100,98,92,30.26,30.11,7,0,9,0.01
2013-1-29,33.0,28.7,21.0,33.0,27.5,21.0,100,94,82,30.15,29.88,14,3,15,0.00
2013-1-30,21.0,12.9,6.0,21.0,13.4,8.0,100,97,84,30.15,30.01,19,5,20,0.00
2013-1-31,6.0,1.8,-10.0,8.0,2.2,-6.0,100,95,83,31.05,30.09,20,5,21,0.00
2013-2-1,-10.0,-14.2,-19.0,-6.0,-11.2,-13.0,100,100,98,32.52,31.05,10,3,11,0.00
2013-2-13,41.0,31.0,26.0,32.0,28.8,26.0,100,90,66,65505.00,30.98,8,1,82,0.05
2013-2-14,26.0,23.9,22.0,26.0,23.5,18.0,100,97,84,32.48,31.35,10,1,11,0.00